Time,TemperatureF,DewpointF,PressureIn,WindDirection,WindDirectionDegrees,WindSpeedMPH,WindSpeedGustMPH,Humidity,HourlyPrecipIn,Conditions,Clouds,dailyrainin,SolarRadiationWatts/m^2,SoftwareType,DateUTC
2013-05-01 00:03:00,61.0,46.1,29.93,NNW,336,3.9,9.6,58,0.00,RA,,0.00,0.0,WeatherDisplay:10.37,2013-05-01 05:03:00,
2013-05-01 00:08:00,61.0,46.1,29.93,NNW,346,4.1,6.0,58,0.00,RA,,0.00,0.0,WeatherDisplay:10.37,2013-05-01 05:08:00,
2013-05-01 00:13:00,60.7,46.3,29.93,NNW,328,7.6,12.0,59,0.00,SCT,,0.00,0.0,WeatherDisplay:10.37,2013-05-01 05:13:00,
2013-05-01 00:18:00,60.4,46.9,29.94,NNW,339,10.4,10.8,61,0.00,SCT,,0.00,0.0,WeatherDisplay:10.37,2013-05-01 05:18:00,
2013-05-01 00:23:00,59.9,47.3,29.94,North,355,3.9,6.9,63,0.00,SCT,,0.00,0.0,WeatherDisplay:10.37,2013-05-01 05:23:00,
2013-05-01 00:28:00,59.6,47.4,29.94,NW,304,4.9,12.0,64,0.00,SCT,,0.00,0.0,WeatherDisplay:10.37,2013-05-01 05:28:00,
2013-05-01 00:33:00,59.2,48.2,29.95,NW,319,7.2,9.2,67,0.00,SCT,,0.00,0.0,WeatherDisplay:10.37,2013-05-01 05:33:00,
2013-05-01 00:38:00,58.9,48.0,29.95,NNW,333,8.1,8.4,67,0.00,SCT,,0.00,0.0,WeatherDisplay:10.37,2013-05-01 05:38:00,
2013-05-01 00:43:00,58.6,47.7,29.95,NNW,331,6.8,10.8,67,0.00,SCT,,0.00,0.0,WeatherDisplay:10.37,2013-05-01 05:43:00,
2013-05-01 00:48:00,58.3,47.4,29.96,North,355,3.9,9.2,67,0.00,SCT,,0.00,0.0,WeatherDisplay:10.37,2013-05-01 05:48:00,
2013-05-01 00:53:00,58.0,47.1,29.96,NNW,334,4.3,6.0,67,0.00,SCT,,0.00,0.0,WeatherDisplay:10.37,2013-05-01 05:53:00,
2013-05-01 00:58:00,57.8,47.3,29.96,North,355,3.0,8.1,68,0.00,SCT,,0.00,0.0,WeatherDisplay:10.37,2013-05-01 05:58:00,
2013-05-01 01:03:00,57.5,47.0,29.95,NNW,340,1.3,3.6,68,0.00,CLR,,0.00,0.0,WeatherDisplay:10.37,2013-05-01 06:03:00,
2013-05-01 01:08:00,57.5,47.4,29.95,NE,38,1.2,4.8,69,0.00,CLR,,0.00,0.0,WeatherDisplay:10.37,2013-05-01 06:08:00,
2013-05-01 01:13:00,57.3,47.2,29.95,North,355,0.0,2.3,69,0.00,CLR,,0.00,0.0,WeatherDisplay:10.37,2013-05-01 06:13:00,
2013-05-01 01:18:00,57.2,47.1,29.95,North,5,2.7,4.6,69,0.00,CLR,,0.00,0.0,WeatherDisplay:10.37,2013-05-01 06:18:00,
2013-05-01 01:23:00,57.0,47.3,29.95,NW,325,2.6,3.6,70,0.00,CLR,,0.00,0.0,WeatherDisplay:10.37,2013-05-01 06:23:00,
2013-05-01 01:28:00,56.9,47.6,29.95,NW,319,4.0,4.8,71,0.00,CLR,,0.00,0.0,WeatherDisplay:10.37,2013-05-01 06:28:00,
2013-05-01 01:33:00,56.9,47.2,29.95,North,355,0.0,0.0,70,0.00,CLR,,0.00,0.0,WeatherDisplay:10.37,2013-05-01 06:33:00,
2013-05-01 01:38:00,56.7,47.0,29.95,North,355,0.0,1.2,70,0.00,CLR,,0.00,0.0,WeatherDisplay:10.37,2013-05-01 06:38:00,
2013-05-01 01:43:00,56.6,47.3,29.95,NNW,347,0.0,0.0,71,0.00,CLR,,0.00,0.0,WeatherDisplay:10.37,2013-05-01 06:43:00,
2013-05-01 01:48:00,56.5,47.2,29.95,NNW,347,0.0,0.0,71,0.00,CLR,,0.00,0.0,WeatherDisplay:10.37,2013-05-01 06:48:00,
2013-05-01 01:53:00,56.5,47.2,29.95,NNW,347,0.0,0.0,71,0.00,CLR,,0.00,0.0,WeatherDisplay:10.37,2013-05-01 06:53:00,
2013-05-01 01:58:00,56.5,47.2,29.95,NNW,347,0.0,0.0,71,0.00,CLR,,0.00,0.0,WeatherDisplay:10.37,2013-05-01 06:58:00,
2013-05-01 02:03:00,56.3,47.4,29.95,NNW,347,0.0,0.0,72,0.00,CLR,,0.00,0.0,WeatherDisplay:10.37,2013-05-01 07:03:00,
2013-05-01 02:08:00,56.2,47.3,29.95,NNW,347,0.0,0.0,72,0.00,CLR,,0.00,0.0,WeatherDisplay:10.37,2013-05-01 07:08:00,
2013-05-01 02:13:00,56.0,47.5,29.95,NNW,347,0.1,1.2,73,0.00,CLR,,0.00,0.0,WeatherDisplay:10.37,2013-05-01 07:13:00,
2013-05-01 02:18:00,56.0,47.5,29.95,NNW,347,0.0,0.0,73,0.00,CLR,,0.00,0.0,WeatherDisplay:10.37,2013-05-01 07:18:00,
2013-05-01 02:23:00,55.9,47.4,29.95,NNW,347,0.0,0.0,73,0.00,CLR,,0.00,0.0,WeatherDisplay:10.37,2013-05-01 07:23:00,
2013-05-01 02:28:00,55.9,47.4,29.95,NNW,347,0.0,0.0,73,0.00,CLR,,0.00,0.0,WeatherDisplay:10.37,2013-05-01 07:28:00,
2013-05-01 02:33:00,55.7,47.2,29.95,NNW,347,0.0,0.0,73,0.00,CLR,,0.00,0.0,WeatherDisplay:10.37,2013-05-01 07:33:00,
2013-05-01 02:38:00,55.6,47.4,29.95,NNW,347,0.0,0.0,74,0.00,CLR,,0.00,0.0,WeatherDisplay:10.37,2013-05-01 07:38:00,
2013-05-01 02:43:00,55.4,47.2,29.95,NNW,347,0.0,0.0,74,0.00,CLR,,0.00,0.0,WeatherDisplay:10.37,2013-05-01 07:43:00,
2013-05-01 02:48:00,55.6,47.1,29.95,NNW,347,0.0,0.0,73,0.00,CLR,,0.00,0.0,WeatherDisplay:10.37,2013-05-01 07:48:00,
2013-05-01 02:53:00,55.4,46.9,29.95,NNW,347,0.0,0.0,73,0.00,CLR,,0.00,0.0,WeatherDisplay:10.37,2013-05-01 07:53:00,
2013-05-01 02:58:00,55.3,47.2,29.95,NNW,347,0.0,1.2,74,0.00,CLR,,0.00,0.0,WeatherDisplay:10.37,2013-05-01 07:58:00,
2013-05-01 03:03:00,55.1,47.0,29.96,NNW,347,0.0,0.0,74,0.00,CLR,,0.00,0.0,WeatherDisplay:10.37,2013-05-01 08:03:00,
2013-05-01 03:08:00,54.8,47.0,29.96,NNW,347,0.0,0.0,75,0.00,CLR,,0.00,0.0,WeatherDisplay:10.37,2013-05-01 08:08:00,
2013-05-01 03:13:00,54.7,46.9,29.96,NNW,347,0.0,0.0,75,0.00,CLR,,0.00,0.0,WeatherDisplay:10.37,2013-05-01 08:13:00,
2013-05-01 03:18:00,54.7,47.3,29.97,NNW,347,0.0,1.2,76,0.00,CLR,,0.00,0.0,WeatherDisplay:10.37,2013-05-01 08:18:00,
2013-05-01 03:23:00,54.5,47.1,29.97,NNW,347,0.0,0.0,76,0.00,CLR,,0.00,0.0,WeatherDisplay:10.37,2013-05-01 08:23:00,
2013-05-01 03:28:00,54.5,47.1,29.97,NW,307,0.4,3.5,76,0.00,CLR,,0.00,0.0,WeatherDisplay:10.37,2013-05-01 08:28:00,
2013-05-01 03:33:00,54.4,47.0,29.98,NW,307,0.0,0.0,76,0.00,CLR,,0.00,0.0,WeatherDisplay:10.37,2013-05-01 08:33:00,
2013-05-01 03:38:00,54.1,46.7,29.98,NW,309,0.0,1.2,76,0.00,CLR,,0.00,0.0,WeatherDisplay:10.37,2013-05-01 08:38:00,
2013-05-01 03:43:00,53.9,46.5,29.98,NW,309,0.0,1.2,76,0.00,CLR,,0.00,0.0,WeatherDisplay:10.37,2013-05-01 08:43:00,
2013-05-01 03:48:00,53.8,46.8,29.98,NW,309,0.0,0.0,77,0.00,CLR,,0.00,0.0,WeatherDisplay:10.37,2013-05-01 08:48:00,
2013-05-01 03:53:00,53.6,46.6,29.98,NW,309,0.0,1.2,77,0.00,CLR,,0.00,0.0,WeatherDisplay:10.37,2013-05-01 08:53:00,
2013-05-01 03:58:00,53.5,46.5,29.98,NW,309,0.0,0.0,77,0.00,CLR,,0.00,0.0,WeatherDisplay:10.37,2013-05-01 08:58:00,
2013-05-01 04:03:00,53.5,46.5,29.99,NW,309,0.0,1.2,77,0.00,SCT,,0.00,0.0,WeatherDisplay:10.37,2013-05-01 09:03:00,
2013-05-01 04:08:00,53.3,46.3,29.99,NW,309,0.2,1.2,77,0.00,SCT,,0.00,0.0,WeatherDisplay:10.37,2013-05-01 09:08:00,
2013-05-01 04:13:00,53.2,46.5,29.99,NW,309,0.0,0.0,78,0.00,SCT,,0.00,0.0,WeatherDisplay:10.37,2013-05-01 09:13:00,
2013-05-01 04:18:00,53.1,46.4,30.00,WNW,302,0.0,0.0,78,0.00,SCT,,0.00,0.0,WeatherDisplay:10.37,2013-05-01 09:18:00,
2013-05-01 04:23:00,53.1,46.4,30.00,NW,304,0.0,0.0,78,0.00,SCT,,0.00,0.0,WeatherDisplay:10.37,2013-05-01 09:23:00,
2013-05-01 04:28:00,53.1,46.8,30.00,NW,304,0.0,0.0,79,0.00,SCT,,0.00,0.0,WeatherDisplay:10.37,2013-05-01 09:28:00,
2013-05-01 04:33:00,53.1,46.8,30.01,NW,304,1.1,2.4,79,0.00,SCT,,0.00,0.0,WeatherDisplay:10.37,2013-05-01 09:33:00,
2013-05-01 04:38:00,53.2,46.9,30.01,NW,304,0.2,2.3,79,0.00,SCT,,0.00,0.0,WeatherDisplay:10.37,2013-05-01 09:38:00,
2013-05-01 04:43:00,53.2,47.2,30.01,NW,304,0.1,5.8,80,0.00,CLR,,0.00,0.0,WeatherDisplay:10.37,2013-05-01 09:43:00,
2013-05-01 04:48:00,53.1,47.1,30.02,NW,306,0.1,1.2,80,0.00,CLR,,0.00,0.0,WeatherDisplay:10.37,2013-05-01 09:48:00,
2013-05-01 04:53:00,52.9,46.9,30.02,NW,306,0.0,1.2,80,0.00,CLR,,0.00,0.0,WeatherDisplay:10.37,2013-05-01 09:53:00,
2013-05-01 04:58:00,52.8,47.1,30.02,NW,306,0.0,1.2,81,0.00,CLR,,0.00,0.0,WeatherDisplay:10.37,2013-05-01 09:58:00,
2013-05-01 05:03:00,52.6,46.9,30.02,NW,306,0.0,0.0,81,0.00,CLR,,0.00,0.0,WeatherDisplay:10.37,2013-05-01 10:03:00,
2013-05-01 05:08:00,52.5,46.8,30.02,NW,305,0.0,0.0,81,0.00,CLR,,0.00,0.0,WeatherDisplay:10.37,2013-05-01 10:08:00,
2013-05-01 05:13:00,52.3,46.6,30.02,NW,306,0.0,1.2,81,0.00,CLR,,0.00,0.0,WeatherDisplay:10.37,2013-05-01 10:13:00,
2013-05-01 05:18:00,52.2,46.9,30.03,NW,306,1.2,3.6,82,0.00,CLR,,0.00,0.0,WeatherDisplay:10.37,2013-05-01 10:18:00,
2013-05-01 05:23:00,52.0,46.7,30.03,NW,325,0.0,3.5,82,0.00,CLR,,0.00,0.0,WeatherDisplay:10.37,2013-05-01 10:23:00,
2013-05-01 05:28:00,51.9,46.9,30.03,WNW,295,0.1,1.2,83,0.00,CLR,,0.00,0.0,WeatherDisplay:10.37,2013-05-01 10:28:00,
2013-05-01 05:33:00,51.7,46.7,30.03,WNW,295,0.0,1.2,83,0.00,CLR,,0.00,0.0,WeatherDisplay:10.37,2013-05-01 10:33:00,
2013-05-01 05:38:00,51.7,46.7,30.03,NW,307,2.9,6.0,83,0.00,CLR,,0.00,0.0,WeatherDisplay:10.37,2013-05-01 10:38:00,
2013-05-01 05:43:00,51.6,46.6,30.03,NNW,327,0.1,1.2,83,0.00,CLR,,0.00,0.0,WeatherDisplay:10.37,2013-05-01 10:43:00,
2013-05-01 05:48:00,51.4,46.7,30.04,NNW,327,0.6,3.6,84,0.00,CLR,,0.00,0.0,WeatherDisplay:10.37,2013-05-01 10:48:00,
2013-05-01 05:53:00,51.4,46.7,30.04,NNW,327,0.0,1.2,84,0.00,CLR,,0.00,5.0,WeatherDisplay:10.37,2013-05-01 10:53:00,
2013-05-01 05:58:00,51.3,46.6,30.04,NNW,327,0.0,1.2,84,0.00,CLR,,0.00,9.0,WeatherDisplay:10.37,2013-05-01 10:58:00,
2013-05-01 06:03:00,51.1,46.4,30.05,NNW,327,0.0,0.0,84,0.00,CLR,,0.00,12.0,WeatherDisplay:10.37,2013-05-01 11:03:00,
2013-05-01 06:08:00,51.1,46.4,30.05,NNW,327,0.1,1.2,84,0.00,CLR,,0.00,19.0,WeatherDisplay:10.37,2013-05-01 11:08:00,
2013-05-01 06:13:00,51.1,46.4,30.05,NNW,327,0.0,0.0,84,0.00,CLR,,0.00,28.0,WeatherDisplay:10.37,2013-05-01 11:13:00,
2013-05-01 06:18:00,51.1,46.4,30.05,NNW,327,0.0,0.0,84,0.00,CLR,,0.00,33.0,WeatherDisplay:10.37,2013-05-01 11:18:00,
2013-05-01 06:23:00,51.1,46.4,30.05,NNW,327,0.0,0.0,84,0.00,CLR,,0.00,39.0,WeatherDisplay:10.37,2013-05-01 11:23:00,
2013-05-01 06:28:00,51.1,46.4,30.05,NNW,327,0.0,0.0,84,0.00,CLR,,0.00,53.0,WeatherDisplay:10.37,2013-05-01 11:28:00,
2013-05-01 06:33:00,51.1,46.7,30.06,NNW,327,1.0,3.6,85,0.00,CLR,,0.00,67.0,WeatherDisplay:10.37,2013-05-01 11:33:00,
2013-05-01 06:38:00,51.3,46.9,30.06,NNW,327,1.2,3.6,85,0.00,CLR,,0.00,63.0,WeatherDisplay:10.37,2013-05-01 11:38:00,
2013-05-01 06:43:00,51.6,47.2,30.06,NW,306,1.1,2.4,85,0.00,CLR,,0.00,60.0,WeatherDisplay:10.37,2013-05-01 11:43:00,
2013-05-01 06:48:00,51.7,47.3,30.08,NW,316,1.1,4.6,85,0.00,CLR,,0.00,58.0,WeatherDisplay:10.37,2013-05-01 11:48:00,
2013-05-01 06:53:00,51.9,47.5,30.08,NNW,329,4.5,7.2,85,0.00,CLR,,0.00,67.0,WeatherDisplay:10.37,2013-05-01 11:53:00,
2013-05-01 06:58:00,51.9,47.5,30.08,NW,325,0.0,1.2,85,0.00,CLR,,0.00,63.0,WeatherDisplay:10.37,2013-05-01 11:58:00,
2013-05-01 07:03:00,51.9,47.5,30.08,NW,321,3.7,6.0,85,0.00,CLR,,0.00,69.0,WeatherDisplay:10.37,2013-05-01 12:03:00,
2013-05-01 07:08:00,51.9,47.5,30.08,NNW,333,0.1,3.5,85,0.00,CLR,,0.00,77.0,WeatherDisplay:10.37,2013-05-01 12:08:00,
2013-05-01 07:13:00,51.9,47.5,30.08,NW,312,2.4,6.0,85,0.00,CLR,,0.00,107.0,WeatherDisplay:10.37,2013-05-01 12:13:00,
2013-05-01 07:18:00,52.0,47.6,30.08,WNW,284,4.6,8.4,85,0.00,CLR,,0.00,144.0,WeatherDisplay:10.37,2013-05-01 12:18:00,
2013-05-01 07:23:00,52.0,47.6,30.08,NW,318,4.4,7.2,85,0.00,BKN,,0.00,171.0,WeatherDisplay:10.37,2013-05-01 12:23:00,
2013-05-01 07:28:00,52.2,47.8,30.08,NNW,327,0.4,2.4,85,0.00,BKN,,0.00,199.0,WeatherDisplay:10.37,2013-05-01 12:28:00,
2013-05-01 07:33:00,52.3,47.9,30.09,NW,313,1.9,5.8,85,0.00,BKN,,0.00,135.0,WeatherDisplay:10.37,2013-05-01 12:33:00,
2013-05-01 07:38:00,52.5,47.8,30.09,NNW,348,2.7,5.8,84,0.00,BKN,,0.00,102.0,WeatherDisplay:10.37,2013-05-01 12:38:00,
2013-05-01 07:43:00,52.3,47.6,30.09,NNW,348,4.2,6.0,84,0.00,OVC,,0.00,102.0,WeatherDisplay:10.37,2013-05-01 12:43:00,
2013-05-01 07:48:00,52.3,47.6,30.10,NW,325,5.3,9.6,84,0.00,OVC,,0.00,113.0,WeatherDisplay:10.37,2013-05-01 12:48:00,
2013-05-01 07:53:00,52.5,47.8,30.10,NNW,338,3.1,7.2,84,0.00,OVC,,0.00,134.0,WeatherDisplay:10.37,2013-05-01 12:53:00,
2013-05-01 07:58:00,52.5,47.5,30.10,North,355,4.2,6.0,83,0.00,OVC,,0.00,295.0,WeatherDisplay:10.37,2013-05-01 12:58:00,
2013-05-01 08:03:00,52.8,47.8,30.10,WNW,300,1.1,4.8,83,0.00,SCT,,0.00,309.0,WeatherDisplay:10.37,2013-05-01 13:03:00,
2013-05-01 08:08:00,52.9,47.2,30.10,NNW,332,4.7,7.2,81,0.00,SCT,,0.00,299.0,WeatherDisplay:10.37,2013-05-01 13:08:00,
2013-05-01 08:13:00,53.3,47.6,30.10,NW,326,6.9,13.2,81,0.00,SCT,,0.00,404.0,WeatherDisplay:10.37,2013-05-01 13:13:00,
2013-05-01 08:18:00,53.5,47.5,30.11,NW,325,6.1,9.6,80,0.00,SCT,,0.00,172.0,WeatherDisplay:10.37,2013-05-01 13:18:00,
2013-05-01 08:23:00,53.6,47.6,30.11,NNW,344,5.6,9.6,80,0.00,CLR,,0.00,237.0,WeatherDisplay:10.37,2013-05-01 13:23:00,
2013-05-01 08:28:00,53.9,47.5,30.11,NW,313,6.3,7.2,79,0.00,CLR,,0.00,454.0,WeatherDisplay:10.37,2013-05-01 13:28:00,
2013-05-01 08:33:00,54.2,47.5,30.12,North,355,5.4,8.4,78,0.00,CLR,,0.00,276.0,WeatherDisplay:10.37,2013-05-01 13:33:00,
2013-05-01 08:38:00,54.5,47.4,30.12,NNW,338,4.8,6.0,77,0.00,CLR,,0.00,243.0,WeatherDisplay:10.37,2013-05-01 13:38:00,
2013-05-01 08:43:00,55.0,47.2,30.12,North,360,4.4,6.0,75,0.00,SCT,,0.00,529.0,WeatherDisplay:10.37,2013-05-01 13:43:00,
2013-05-01 08:48:00,55.6,47.4,30.11,NE,34,3.1,6.0,74,0.00,SCT,,0.00,527.0,WeatherDisplay:10.37,2013-05-01 13:48:00,
2013-05-01 08:53:00,56.0,47.1,30.11,NNW,339,7.1,8.4,72,0.00,SCT,,0.00,520.0,WeatherDisplay:10.37,2013-05-01 13:53:00,
2013-05-01 08:58:00,56.3,47.4,30.11,North,360,3.3,7.2,72,0.00,SCT,,0.00,350.0,WeatherDisplay:10.37,2013-05-01 13:58:00,
2013-05-01 09:03:00,56.7,47.4,30.12,North,351,7.9,12.0,71,0.00,CLR,,0.00,606.0,WeatherDisplay:10.37,2013-05-01 14:03:00,
2013-05-01 09:08:00,57.0,46.9,30.12,North,5,8.4,12.0,69,0.00,CLR,,0.00,327.0,WeatherDisplay:10.37,2013-05-01 14:08:00,
2013-05-01 09:13:00,57.2,46.7,30.12,NNW,331,4.4,7.2,68,0.00,CLR,,0.00,281.0,WeatherDisplay:10.37,2013-05-01 14:13:00,
2013-05-01 09:18:00,57.6,46.7,30.12,North,360,8.9,15.0,67,0.00,CLR,,0.00,578.0,WeatherDisplay:10.37,2013-05-01 14:18:00,
2013-05-01 09:23:00,58.1,46.0,30.12,NE,36,8.8,9.6,64,0.00,CLR,,0.00,589.0,WeatherDisplay:10.37,2013-05-01 14:23:00,
2013-05-01 09:28:00,58.6,45.6,30.12,NNW,340,7.4,9.6,62,0.00,CLR,,0.00,615.0,WeatherDisplay:10.37,2013-05-01 14:28:00,
2013-05-01 09:33:00,59.0,43.8,30.11,NNW,344,7.4,8.4,57,0.00,CLR,,0.00,633.0,WeatherDisplay:10.37,2013-05-01 14:33:00,
2013-05-01 09:38:00,59.3,43.1,30.11,NW,324,5.8,7.2,55,0.00,CLR,,0.00,650.0,WeatherDisplay:10.37,2013-05-01 14:38:00,
2013-05-01 09:43:00,59.6,41.4,30.11,NW,321,7.8,12.0,51,0.00,CLR,,0.00,666.0,WeatherDisplay:10.37,2013-05-01 14:43:00,
2013-05-01 09:48:00,59.9,40.7,30.11,NNE,18,11.9,15.0,49,0.00,CLR,,0.00,613.0,WeatherDisplay:10.37,2013-05-01 14:48:00,
2013-05-01 09:53:00,59.9,41.2,30.11,ENE,60,8.6,12.7,50,0.00,CLR,,0.00,696.0,WeatherDisplay:10.37,2013-05-01 14:53:00,
2013-05-01 09:58:00,60.2,41.5,30.11,NNE,14,10.9,13.2,50,0.00,CLR,,0.00,751.0,WeatherDisplay:10.37,2013-05-01 14:58:00,
2013-05-01 10:03:00,60.5,41.2,30.11,North,5,9.0,9.6,49,0.00,CLR,,0.00,740.0,WeatherDisplay:10.37,2013-05-01 15:03:00,
2013-05-01 10:08:00,60.7,40.9,30.11,NNE,13,7.7,9.6,48,0.00,CLR,,0.00,733.0,WeatherDisplay:10.37,2013-05-01 15:08:00,
2013-05-01 10:13:00,60.7,40.9,30.11,NNE,29,8.5,12.7,48,0.00,CLR,,0.00,738.0,WeatherDisplay:10.37,2013-05-01 15:13:00,
2013-05-01 10:18:00,61.3,41.4,30.11,NE,46,2.9,8.1,48,0.00,CLR,,0.00,737.0,WeatherDisplay:10.37,2013-05-01 15:18:00,
2013-05-01 10:23:00,62.1,42.7,30.11,NNE,19,5.7,8.4,49,0.00,CLR,,0.00,830.0,WeatherDisplay:10.37,2013-05-01 15:23:00,
2013-05-01 10:28:00,61.8,42.4,30.11,NE,44,8.4,12.0,49,0.00,CLR,,0.00,823.0,WeatherDisplay:10.37,2013-05-01 15:28:00,
2013-05-01 10:33:00,61.6,42.8,30.11,NNE,26,3.1,8.1,50,0.00,CLR,,0.00,835.0,WeatherDisplay:10.37,2013-05-01 15:33:00,
2013-05-01 10:38:00,62.0,42.1,30.11,North,355,5.8,7.2,48,0.00,CLR,,0.00,844.0,WeatherDisplay:10.37,2013-05-01 15:38:00,
2013-05-01 10:43:00,62.4,42.4,30.11,North,5,3.8,6.9,48,0.00,CLR,,0.00,594.0,WeatherDisplay:10.37,2013-05-01 15:43:00,
2013-05-01 10:48:00,62.6,42.6,30.12,NNE,24,6.7,10.8,48,0.00,CLR,,0.00,874.0,WeatherDisplay:10.37,2013-05-01 15:48:00,
2013-05-01 10:53:00,62.1,42.2,30.12,NNE,24,8.7,15.0,48,0.00,CLR,,0.00,898.0,WeatherDisplay:10.37,2013-05-01 15:53:00,
2013-05-01 10:58:00,62.6,42.1,30.12,NNE,33,6.0,9.2,47,0.00,CLR,,0.00,914.0,WeatherDisplay:10.37,2013-05-01 15:58:00,
2013-05-01 11:03:00,63.1,42.5,30.12,NE,55,7.5,10.8,47,0.00,CLR,,0.00,831.0,WeatherDisplay:10.37,2013-05-01 16:03:00,
2013-05-01 11:08:00,63.4,42.8,30.12,NNW,334,5.2,9.6,47,0.00,CLR,,0.00,724.0,WeatherDisplay:10.37,2013-05-01 16:08:00,
2013-05-01 11:13:00,63.4,41.1,30.12,NW,323,6.9,8.4,44,0.00,CLR,,0.00,846.0,WeatherDisplay:10.37,2013-05-01 16:13:00,
2013-05-01 11:18:00,64.3,43.6,30.12,NE,42,1.5,4.6,47,0.00,CLR,,0.00,828.0,WeatherDisplay:10.37,2013-05-01 16:18:00,
2013-05-01 11:23:00,63.9,42.1,30.12,ENE,61,6.6,11.5,45,0.00,CLR,,0.00,789.0,WeatherDisplay:10.37,2013-05-01 16:23:00,
2013-05-01 11:28:00,63.4,42.8,30.12,NNE,30,6.8,10.8,47,0.00,CLR,,0.00,826.0,WeatherDisplay:10.37,2013-05-01 16:28:00,
2013-05-01 11:33:00,63.4,43.4,30.12,NNE,13,5.5,7.2,48,0.00,CLR,,0.00,712.0,WeatherDisplay:10.37,2013-05-01 16:33:00,
2013-05-01 11:38:00,63.9,43.3,30.12,NNE,30,3.3,6.0,47,0.00,CLR,,0.00,675.0,WeatherDisplay:10.37,2013-05-01 16:38:00,
2013-05-01 11:43:00,64.0,43.9,30.12,NNE,24,1.5,4.8,48,0.00,SCT,,0.00,705.0,WeatherDisplay:10.37,2013-05-01 16:43:00,
2013-05-01 11:48:00,64.8,43.5,30.11,NE,44,5.1,7.2,46,0.00,SCT,,0.00,844.0,WeatherDisplay:10.37,2013-05-01 16:48:00,
2013-05-01 11:53:00,65.3,44.0,30.11,ENE,63,3.8,6.0,46,0.00,SCT,,0.00,752.0,WeatherDisplay:10.37,2013-05-01 16:53:00,
2013-05-01 11:58:00,64.8,43.5,30.11,NE,39,6.9,8.4,46,0.00,SCT,,0.00,898.0,WeatherDisplay:10.37,2013-05-01 16:58:00,
2013-05-01 12:03:00,64.5,43.8,30.11,NE,45,4.1,6.9,47,0.00,CLR,,0.00,879.0,WeatherDisplay:10.37,2013-05-01 17:03:00,
2013-05-01 12:08:00,64.7,43.4,30.11,NNE,19,6.0,8.4,46,0.00,CLR,,0.00,853.0,WeatherDisplay:10.37,2013-05-01 17:08:00,
2013-05-01 12:13:00,65.5,44.7,30.11,ESE,105,0.1,1.2,47,0.00,CLR,,0.00,847.0,WeatherDisplay:10.37,2013-05-01 17:13:00,
2013-05-01 12:18:00,65.8,43.9,30.12,NNE,26,6.4,8.4,45,0.00,CLR,,0.00,909.0,WeatherDisplay:10.37,2013-05-01 17:18:00,
2013-05-01 12:23:00,65.3,44.5,30.12,North,5,3.0,7.2,47,0.00,SCT,,0.00,847.0,WeatherDisplay:10.37,2013-05-01 17:23:00,
2013-05-01 12:28:00,65.5,44.7,30.12,North,11,1.2,3.6,47,0.00,SCT,,0.00,884.0,WeatherDisplay:10.37,2013-05-01 17:28:00,
2013-05-01 12:33:00,65.8,45.0,30.12,NNE,16,5.4,10.8,47,0.00,SCT,,0.00,928.0,WeatherDisplay:10.37,2013-05-01 17:33:00,
2013-05-01 12:38:00,66.3,43.7,30.12,NW,306,5.3,9.2,44,0.00,SCT,,0.00,907.0,WeatherDisplay:10.37,2013-05-01 17:38:00,
2013-05-01 12:43:00,65.8,43.9,30.12,North,360,9.0,12.0,45,0.00,SCT,,0.00,921.0,WeatherDisplay:10.37,2013-05-01 17:43:00,
2013-05-01 12:48:00,65.5,43.6,30.13,NW,307,3.9,7.2,45,0.00,SCT,,0.00,918.0,WeatherDisplay:10.37,2013-05-01 17:48:00,
2013-05-01 12:53:00,65.8,45.0,30.13,NE,38,4.4,9.6,47,0.00,SCT,,0.00,886.0,WeatherDisplay:10.37,2013-05-01 17:53:00,
2013-05-01 12:58:00,66.8,46.5,30.13,NNE,18,3.1,6.0,48,0.00,SCT,,0.00,923.0,WeatherDisplay:10.37,2013-05-01 17:58:00,
2013-05-01 13:03:00,66.8,45.3,30.13,North,5,4.4,8.4,46,0.00,CLR,,0.00,896.0,WeatherDisplay:10.37,2013-05-01 18:03:00,
2013-05-01 13:08:00,66.8,45.3,30.13,NW,314,4.1,7.2,46,0.00,CLR,,0.00,884.0,WeatherDisplay:10.37,2013-05-01 18:08:00,
2013-05-01 13:13:00,66.9,45.4,30.13,NW,306,0.0,3.5,46,0.00,CLR,,0.00,900.0,WeatherDisplay:10.37,2013-05-01 18:13:00,
2013-05-01 13:18:00,67.3,44.6,30.14,WSW,242,0.7,3.5,44,0.00,CLR,,0.00,902.0,WeatherDisplay:10.37,2013-05-01 18:18:00,
2013-05-01 13:23:00,67.4,45.3,30.14,NW,319,2.8,6.0,45,0.00,SCT,,0.00,905.0,WeatherDisplay:10.37,2013-05-01 18:23:00,
2013-05-01 13:28:00,67.4,45.3,30.14,NNE,26,5.1,9.6,45,0.00,SCT,,0.00,902.0,WeatherDisplay:10.37,2013-05-01 18:28:00,
2013-05-01 13:33:00,68.4,45.0,30.15,NNW,330,2.1,6.0,43,0.00,SCT,,0.00,891.0,WeatherDisplay:10.37,2013-05-01 18:33:00,
2013-05-01 13:38:00,68.6,44.6,30.15,North,5,2.9,4.8,42,0.00,SCT,,0.00,888.0,WeatherDisplay:10.37,2013-05-01 18:38:00,
2013-05-01 13:43:00,68.3,44.9,30.15,NNE,27,0.0,1.2,43,0.00,SCT,,0.00,889.0,WeatherDisplay:10.37,2013-05-01 18:43:00,
2013-05-01 13:48:00,68.9,44.9,30.15,WNW,292,1.5,3.6,42,0.00,SCT,,0.00,867.0,WeatherDisplay:10.37,2013-05-01 18:48:00,
2013-05-01 13:53:00,69.3,46.4,30.15,NNE,13,1.4,4.8,44,0.00,SCT,,0.00,879.0,WeatherDisplay:10.37,2013-05-01 18:53:00,
2013-05-01 13:58:00,70.8,46.6,30.15,East,90,0.0,1.2,42,0.00,SCT,,0.00,868.0,WeatherDisplay:10.37,2013-05-01 18:58:00,
2013-05-01 14:03:00,70.4,48.0,30.15,WNW,284,0.0,1.2,45,0.00,SCT,,0.00,872.0,WeatherDisplay:10.37,2013-05-01 19:03:00,
2013-05-01 14:08:00,70.6,45.7,30.15,NE,36,0.3,3.5,41,0.00,SCT,,0.00,863.0,WeatherDisplay:10.37,2013-05-01 19:08:00,
2013-05-01 14:13:00,68.8,47.2,30.15,WNW,288,6.2,8.1,46,0.00,SCT,,0.00,847.0,WeatherDisplay:10.37,2013-05-01 19:13:00,
2013-05-01 14:18:00,67.9,47.5,30.15,West,278,5.1,9.6,48,0.00,SCT,,0.00,844.0,WeatherDisplay:10.37,2013-05-01 19:18:00,
2013-05-01 14:23:00,66.9,47.6,30.15,WNW,302,8.1,12.0,50,0.00,BKN,,0.00,842.0,WeatherDisplay:10.37,2013-05-01 19:23:00,
2013-05-01 14:28:00,66.0,47.3,30.15,WNW,292,10.3,16.1,51,0.00,BKN,,0.00,856.0,WeatherDisplay:10.37,2013-05-01 19:28:00,
2013-05-01 14:33:00,65.6,47.0,30.15,WNW,290,13.1,19.2,51,0.00,BKN,,0.00,882.0,WeatherDisplay:10.37,2013-05-01 19:33:00,
2013-05-01 14:38:00,65.5,48.4,30.15,WNW,290,6.1,8.1,54,0.00,BKN,,0.00,882.0,WeatherDisplay:10.37,2013-05-01 19:38:00,
2013-05-01 14:43:00,65.8,48.2,30.15,WNW,302,9.9,11.5,53,0.00,SCT,,0.00,830.0,WeatherDisplay:10.37,2013-05-01 19:43:00,
2013-05-01 14:48:00,65.0,47.9,30.15,WNW,298,9.8,10.8,54,0.00,SCT,,0.00,803.0,WeatherDisplay:10.37,2013-05-01 19:48:00,
2013-05-01 14:53:00,65.0,47.9,30.15,WNW,290,9.9,17.3,54,0.00,SCT,,0.00,800.0,WeatherDisplay:10.37,2013-05-01 19:53:00,
2013-05-01 14:58:00,65.2,48.6,30.15,WNW,300,7.8,9.6,55,0.00,SCT,,0.00,788.0,WeatherDisplay:10.37,2013-05-01 19:58:00,
2013-05-01 15:03:00,64.5,47.5,30.15,WNW,299,13.3,15.0,54,0.00,CLR,,0.00,777.0,WeatherDisplay:10.37,2013-05-01 20:03:00,
2013-05-01 15:08:00,64.7,48.6,30.15,WNW,302,10.1,13.2,56,0.00,CLR,,0.00,766.0,WeatherDisplay:10.37,2013-05-01 20:08:00,
2013-05-01 15:13:00,65.5,48.4,30.15,West,277,5.9,10.4,54,0.00,CLR,,0.00,759.0,WeatherDisplay:10.37,2013-05-01 20:13:00,
2013-05-01 15:18:00,65.2,48.1,30.16,NW,313,8.9,16.1,54,0.00,CLR,,0.00,749.0,WeatherDisplay:10.37,2013-05-01 20:18:00,
2013-05-01 15:23:00,65.5,47.9,30.16,NW,325,9.0,10.8,53,0.00,CLR,,0.00,733.0,WeatherDisplay:10.37,2013-05-01 20:23:00,
2013-05-01 15:28:00,66.1,46.9,30.16,NW,315,6.9,9.6,50,0.00,CLR,,0.00,735.0,WeatherDisplay:10.37,2013-05-01 20:28:00,
2013-05-01 15:33:00,66.3,47.6,30.17,NNW,348,7.1,9.2,51,0.00,CLR,,0.00,722.0,WeatherDisplay:10.37,2013-05-01 20:33:00,
2013-05-01 15:38:00,66.8,47.6,30.17,NW,312,5.9,9.6,50,0.00,CLR,,0.00,744.0,WeatherDisplay:10.37,2013-05-01 20:38:00,
2013-05-01 15:43:00,66.6,47.4,30.17,WNW,287,7.8,9.6,50,0.00,CLR,,0.00,694.0,WeatherDisplay:10.37,2013-05-01 20:43:00,
2013-05-01 15:48:00,66.4,47.2,30.17,NW,309,5.0,7.2,50,0.00,CLR,,0.00,288.0,WeatherDisplay:10.37,2013-05-01 20:48:00,
2013-05-01 15:53:00,66.4,48.2,30.17,NW,322,6.3,9.6,52,0.00,CLR,,0.00,751.0,WeatherDisplay:10.37,2013-05-01 20:53:00,
2013-05-01 15:58:00,66.8,47.0,30.17,North,355,6.7,9.6,49,0.00,CLR,,0.00,687.0,WeatherDisplay:10.37,2013-05-01 20:58:00,
2013-05-01 16:03:00,66.4,46.7,30.17,NNW,340,8.7,13.2,49,0.00,CLR,,0.00,642.0,WeatherDisplay:10.37,2013-05-01 21:03:00,
2013-05-01 16:08:00,66.3,46.6,30.17,NW,318,6.7,8.4,49,0.00,CLR,,0.00,638.0,WeatherDisplay:10.37,2013-05-01 21:08:00,
2013-05-01 16:13:00,66.6,46.8,30.17,NNW,331,8.7,10.8,49,0.00,CLR,,0.00,619.0,WeatherDisplay:10.37,2013-05-01 21:13:00,
2013-05-01 16:18:00,67.1,46.7,30.17,NW,304,5.8,12.0,48,0.00,CLR,,0.00,594.0,WeatherDisplay:10.37,2013-05-01 21:18:00,
2013-05-01 16:23:00,67.1,46.2,30.17,North,360,6.9,8.4,47,0.00,CLR,,0.00,577.0,WeatherDisplay:10.37,2013-05-01 21:23:00,
2013-05-01 16:28:00,66.9,46.6,30.17,NW,312,8.4,10.4,48,0.00,CLR,,0.00,566.0,WeatherDisplay:10.37,2013-05-01 21:28:00,
2013-05-01 16:33:00,66.6,46.8,30.18,NW,317,3.5,9.2,49,0.00,CLR,,0.00,552.0,WeatherDisplay:10.37,2013-05-01 21:33:00,
2013-05-01 16:38:00,66.8,47.0,30.18,NW,325,6.7,10.8,49,0.00,CLR,,0.00,534.0,WeatherDisplay:10.37,2013-05-01 21:38:00,
2013-05-01 16:43:00,66.8,47.0,30.18,NW,315,8.0,11.5,49,0.00,CLR,,0.00,526.0,WeatherDisplay:10.37,2013-05-01 21:43:00,
2013-05-01 16:48:00,66.1,46.9,30.17,North,355,8.4,12.0,50,0.00,CLR,,0.00,508.0,WeatherDisplay:10.37,2013-05-01 21:48:00,
2013-05-01 16:53:00,66.1,46.9,30.17,NW,307,7.0,9.6,50,0.00,CLR,,0.00,490.0,WeatherDisplay:10.37,2013-05-01 21:53:00,
2013-05-01 16:58:00,66.0,46.8,30.17,NW,321,7.2,10.8,50,0.00,CLR,,0.00,473.0,WeatherDisplay:10.37,2013-05-01 21:58:00,
2013-05-01 17:03:00,66.1,47.4,30.18,NNW,331,10.7,15.0,51,0.00,CLR,,0.00,459.0,WeatherDisplay:10.37,2013-05-01 22:03:00,
2013-05-01 17:08:00,66.0,46.8,30.18,NNW,342,7.3,11.5,50,0.00,CLR,,0.00,448.0,WeatherDisplay:10.37,2013-05-01 22:08:00,
2013-05-01 17:13:00,66.1,46.9,30.18,NW,319,4.4,6.9,50,0.00,CLR,,0.00,432.0,WeatherDisplay:10.37,2013-05-01 22:13:00,
2013-05-01 17:18:00,66.3,47.6,30.17,North,355,1.9,9.2,51,0.00,CLR,,0.00,417.0,WeatherDisplay:10.37,2013-05-01 22:18:00,
2013-05-01 17:23:00,66.3,47.6,30.17,North,360,6.3,13.2,51,0.00,CLR,,0.00,387.0,WeatherDisplay:10.37,2013-05-01 22:23:00,
2013-05-01 17:28:00,65.5,46.4,30.17,NNW,334,9.9,12.0,50,0.00,CLR,,0.00,388.0,WeatherDisplay:10.37,2013-05-01 22:28:00,
2013-05-01 17:33:00,64.8,47.3,30.18,North,5,6.7,8.1,53,0.00,CLR,,0.00,376.0,WeatherDisplay:10.37,2013-05-01 22:33:00,
2013-05-01 17:38:00,64.7,46.7,30.18,NW,324,4.3,8.4,52,0.00,CLR,,0.00,338.0,WeatherDisplay:10.37,2013-05-01 22:38:00,
2013-05-01 17:43:00,64.7,46.7,30.18,NNE,22,8.9,12.0,52,0.00,CLR,,0.00,334.0,WeatherDisplay:10.37,2013-05-01 22:43:00,
2013-05-01 17:48:00,64.5,47.0,30.19,NNE,19,7.3,12.0,53,0.00,CLR,,0.00,322.0,WeatherDisplay:10.37,2013-05-01 22:48:00,
2013-05-01 17:53:00,64.3,46.8,30.19,NNE,31,9.2,12.0,53,0.00,CLR,,0.00,297.0,WeatherDisplay:10.37,2013-05-01 22:53:00,
2013-05-01 17:58:00,63.7,46.2,30.19,North,355,7.4,10.8,53,0.00,CLR,,0.00,279.0,WeatherDisplay:10.37,2013-05-01 22:58:00,
2013-05-01 18:03:00,63.2,46.8,30.20,NNW,334,9.2,10.8,55,0.00,CLR,,0.00,272.0,WeatherDisplay:10.37,2013-05-01 23:03:00,
2013-05-01 18:08:00,63.2,47.2,30.20,NW,319,2.4,4.8,56,0.00,CLR,,0.00,253.0,WeatherDisplay:10.37,2013-05-01 23:08:00,
2013-05-01 18:13:00,63.1,46.7,30.20,NNW,333,8.1,10.8,55,0.00,CLR,,0.00,243.0,WeatherDisplay:10.37,2013-05-01 23:13:00,
2013-05-01 18:18:00,62.1,45.7,30.20,NNW,336,11.5,15.6,55,0.00,CLR,,0.00,229.0,WeatherDisplay:10.37,2013-05-01 23:18:00,
2013-05-01 18:23:00,61.2,45.8,30.20,NNW,342,9.2,12.0,57,0.00,CLR,,0.00,211.0,WeatherDisplay:10.37,2013-05-01 23:23:00,
2013-05-01 18:28:00,61.2,45.8,30.20,NNW,327,9.6,12.0,57,0.00,CLR,,0.00,190.0,WeatherDisplay:10.37,2013-05-01 23:28:00,
2013-05-01 18:33:00,61.0,45.7,30.20,NNE,19,8.4,12.7,57,0.00,CLR,,0.00,174.0,WeatherDisplay:10.37,2013-05-01 23:33:00,
2013-05-01 18:38:00,60.7,45.4,30.20,NW,309,9.3,12.7,57,0.00,CLR,,0.00,113.0,WeatherDisplay:10.37,2013-05-01 23:38:00,
2013-05-01 18:43:00,60.1,45.7,30.20,NW,323,10.7,19.2,59,0.00,CLR,,0.00,141.0,WeatherDisplay:10.37,2013-05-01 23:43:00,
2013-05-01 18:48:00,59.3,45.4,30.22,NW,323,8.2,9.6,60,0.00,CLR,,0.00,98.0,WeatherDisplay:10.37,2013-05-01 23:48:00,
2013-05-01 18:53:00,59.2,45.3,30.22,NNW,340,8.1,10.8,60,0.00,CLR,,0.00,90.0,WeatherDisplay:10.37,2013-05-01 23:53:00,
2013-05-01 18:58:00,58.7,45.3,30.22,NNW,336,7.7,10.8,61,0.00,CLR,,0.00,74.0,WeatherDisplay:10.37,2013-05-01 23:58:00,
2013-05-01 19:03:00,57.6,44.7,30.22,NW,312,11.8,23.0,62,0.00,SCT,,0.00,74.0,WeatherDisplay:10.37,2013-05-02 00:03:00,
2013-05-01 19:08:00,56.5,44.5,30.22,NNW,329,9.6,16.1,64,0.00,SCT,,0.00,65.0,WeatherDisplay:10.37,2013-05-02 00:08:00,
2013-05-01 19:13:00,55.9,44.3,30.22,NW,323,8.4,13.2,65,0.00,SCT,,0.00,53.0,WeatherDisplay:10.37,2013-05-02 00:13:00,
2013-05-01 19:18:00,55.4,44.2,30.23,NW,319,5.4,6.9,66,0.00,SCT,,0.00,44.0,WeatherDisplay:10.37,2013-05-02 00:18:00,
2013-05-01 19:23:00,55.0,44.2,30.23,North,11,10.5,13.2,67,0.00,BKN,,0.00,39.0,WeatherDisplay:10.37,2013-05-02 00:23:00,
2013-05-01 19:28:00,53.5,42.8,30.23,NW,316,12.8,15.0,67,0.00,BKN,,0.00,32.0,WeatherDisplay:10.37,2013-05-02 00:28:00,
2013-05-01 19:33:00,52.6,42.7,30.25,NW,319,9.6,10.8,69,0.00,BKN,,0.00,23.0,WeatherDisplay:10.37,2013-05-02 00:33:00,
2013-05-01 19:38:00,52.2,42.7,30.25,NNE,22,11.7,15.0,70,0.00,BKN,,0.00,19.0,WeatherDisplay:10.37,2013-05-02 00:38:00,
2013-05-01 19:43:00,50.8,41.7,30.25,NNW,328,14.0,19.6,71,0.00,BKN,,0.00,14.0,WeatherDisplay:10.37,2013-05-02 00:43:00,
2013-05-01 19:48:00,50.2,41.5,30.25,NW,323,13.3,15.0,72,0.00,BKN,,0.00,5.0,WeatherDisplay:10.37,2013-05-02 00:48:00,
2013-05-01 19:53:00,49.6,41.3,30.25,NNW,340,11.3,12.0,73,0.00,BKN,,0.00,0.0,WeatherDisplay:10.37,2013-05-02 00:53:00,
2013-05-01 19:58:00,49.5,41.2,30.25,NNW,331,14.4,16.1,73,0.00,BKN,,0.00,0.0,WeatherDisplay:10.37,2013-05-02 00:58:00,
2013-05-01 20:03:00,49.1,41.2,30.27,NW,311,5.9,8.4,74,0.00,SCT,,0.00,0.0,WeatherDisplay:10.37,2013-05-02 01:03:00,
2013-05-01 20:08:00,49.1,41.2,30.27,NW,307,9.7,19.6,74,0.00,SCT,,0.00,0.0,WeatherDisplay:10.37,2013-05-02 01:08:00,
2013-05-01 20:13:00,49.1,40.8,30.27,North,9,8.7,12.7,73,0.00,SCT,,0.00,0.0,WeatherDisplay:10.37,2013-05-02 01:13:00,
2013-05-01 20:18:00,48.9,40.6,30.27,NNW,341,7.5,12.7,73,0.00,SCT,,0.00,0.0,WeatherDisplay:10.37,2013-05-02 01:18:00,
2013-05-01 20:23:00,48.8,40.5,30.27,NNW,339,15.5,20.4,73,0.00,SCT,,0.00,0.0,WeatherDisplay:10.37,2013-05-02 01:23:00,
2013-05-01 20:28:00,48.6,40.3,30.27,NNW,330,9.5,15.0,73,0.00,SCT,,0.00,0.0,WeatherDisplay:10.37,2013-05-02 01:28:00,
2013-05-01 20:33:00,48.5,40.2,30.28,NNW,327,11.2,17.3,73,0.00,SCT,,0.00,0.0,WeatherDisplay:10.37,2013-05-02 01:33:00,
2013-05-01 20:38:00,48.5,40.6,30.28,NNW,328,3.5,6.0,74,0.00,SCT,,0.00,0.0,WeatherDisplay:10.37,2013-05-02 01:38:00,
2013-05-01 20:43:00,48.5,40.9,30.28,NNW,333,6.7,8.4,75,0.00,SCT,,0.00,0.0,WeatherDisplay:10.37,2013-05-02 01:43:00,
2013-05-01 20:48:00,48.2,40.6,30.28,NNW,330,11.0,14.4,75,0.00,SCT,,0.00,0.0,WeatherDisplay:10.37,2013-05-02 01:48:00,
2013-05-01 20:53:00,47.9,40.4,30.28,North,5,8.4,12.7,75,0.00,SCT,,0.00,0.0,WeatherDisplay:10.37,2013-05-02 01:53:00,
2013-05-01 20:58:00,47.6,40.4,30.28,NW,311,9.2,10.8,76,0.00,SCT,,0.00,0.0,WeatherDisplay:10.37,2013-05-02 01:58:00,
2013-05-01 21:03:00,47.4,40.2,30.29,NNW,342,8.3,14.4,76,0.00,SCT,,0.00,0.0,WeatherDisplay:10.37,2013-05-02 02:03:00,
2013-05-01 21:08:00,47.3,40.5,30.29,NW,317,4.4,7.2,77,0.00,SCT,,0.00,0.0,WeatherDisplay:10.37,2013-05-02 02:08:00,
2013-05-01 21:13:00,47.1,39.9,30.29,NNW,329,7.6,12.0,76,0.00,SCT,,0.00,0.0,WeatherDisplay:10.37,2013-05-02 02:13:00,
2013-05-01 21:18:00,47.1,39.9,30.30,NNW,327,10.0,15.6,76,0.00,SCT,,0.00,0.0,WeatherDisplay:10.37,2013-05-02 02:18:00,
2013-05-01 21:23:00,47.0,39.5,30.30,NNW,348,7.9,12.0,75,0.00,CLR,,0.00,0.0,WeatherDisplay:10.37,2013-05-02 02:23:00,
2013-05-01 21:28:00,46.8,39.3,30.30,NNW,333,6.8,10.8,75,0.00,CLR,,0.00,0.0,WeatherDisplay:10.37,2013-05-02 02:28:00,
2013-05-01 21:33:00,46.7,39.2,30.30,NNE,25,8.3,10.8,75,0.00,CLR,,0.00,0.0,WeatherDisplay:10.37,2013-05-02 02:33:00,
2013-05-01 21:38:00,46.8,39.3,30.30,NNW,336,8.1,9.6,75,0.00,CLR,,0.00,0.0,WeatherDisplay:10.37,2013-05-02 02:38:00,
2013-05-01 21:43:00,46.7,39.2,30.30,NNW,337,7.2,10.8,75,0.00,BKN,,0.00,0.0,WeatherDisplay:10.37,2013-05-02 02:43:00,
2013-05-01 21:48:00,46.7,38.5,30.32,North,5,9.8,15.0,73,0.00,BKN,,0.00,0.0,WeatherDisplay:10.37,2013-05-02 02:48:00,
2013-05-01 21:53:00,46.7,38.5,30.32,North,360,9.8,12.0,73,0.00,BKN,,0.00,0.0,WeatherDisplay:10.37,2013-05-02 02:53:00,
2013-05-01 21:58:00,46.5,37.6,30.32,NNW,328,12.1,15.0,71,0.00,BKN,,0.00,0.0,WeatherDisplay:10.37,2013-05-02 02:58:00,
2013-05-01 22:03:00,46.5,37.2,30.32,North,355,9.3,13.2,70,0.00,BKN,,0.00,0.0,WeatherDisplay:10.37,2013-05-02 03:03:00,
2013-05-01 22:08:00,46.5,37.2,30.32,NW,323,9.5,10.8,70,0.00,BKN,,0.00,0.0,WeatherDisplay:10.37,2013-05-02 03:08:00,
2013-05-01 22:13:00,46.4,37.1,30.32,NNE,19,11.3,14.4,70,0.00,OVC,,0.00,0.0,WeatherDisplay:10.37,2013-05-02 03:13:00,
2013-05-01 22:18:00,46.4,37.1,30.32,NNE,23,7.5,10.8,70,0.00,OVC,,0.00,0.0,WeatherDisplay:10.37,2013-05-02 03:18:00,
2013-05-01 22:23:00,46.2,37.0,30.32,NE,39,10.6,16.1,70,0.00,OVC,,0.00,0.0,WeatherDisplay:10.37,2013-05-02 03:23:00,
2013-05-01 22:28:00,46.1,36.9,30.32,North,355,8.6,10.8,70,0.00,OVC,,0.00,0.0,WeatherDisplay:10.37,2013-05-02 03:28:00,
2013-05-01 22:33:00,46.1,36.9,30.31,NW,323,6.2,8.4,70,0.00,OVC,,0.00,0.0,WeatherDisplay:10.37,2013-05-02 03:33:00,
2013-05-01 22:38:00,46.0,37.1,30.31,North,349,7.0,8.4,71,0.00,OVC,,0.00,0.0,WeatherDisplay:10.37,2013-05-02 03:38:00,
2013-05-01 22:43:00,45.8,36.9,30.31,North,355,6.8,9.2,71,0.00,OVC,,0.00,0.0,WeatherDisplay:10.37,2013-05-02 03:43:00,
2013-05-01 22:48:00,45.7,36.8,30.31,NW,321,9.4,12.0,71,0.00,OVC,,0.00,0.0,WeatherDisplay:10.37,2013-05-02 03:48:00,
2013-05-01 22:53:00,45.5,36.6,30.31,North,349,8.3,10.8,71,0.00,OVC,,0.00,0.0,WeatherDisplay:10.37,2013-05-02 03:53:00,
2013-05-01 22:58:00,45.2,36.7,30.31,NNW,336,9.6,13.2,72,0.00,OVC,,0.00,0.0,WeatherDisplay:10.37,2013-05-02 03:58:00,
2013-05-01 23:01:00,45.2,36.7,30.31,NW,319,6.0,8.4,72,0.00,OVC,,0.00,0.0,WeatherDisplay:10.37,2013-05-02 04:01:00,
2013-05-01 23:02:00,45.2,36.7,30.31,North,5,6.0,9.6,72,0.00,OVC,,0.00,0.0,WeatherDisplay:10.37,2013-05-02 04:02:00,
2013-05-01 23:07:00,45.1,36.6,30.31,NNW,340,6.7,9.6,72,0.00,OVC,,0.00,0.0,WeatherDisplay:10.37,2013-05-02 04:07:00,
2013-05-01 23:12:00,45.1,36.6,30.31,North,9,11.4,16.8,72,0.00,OVC,,0.00,0.0,WeatherDisplay:10.37,2013-05-02 04:12:00,
2013-05-01 23:17:00,45.1,36.6,30.31,NE,36,6.9,12.0,72,0.00,OVC,,0.00,0.0,WeatherDisplay:10.37,2013-05-02 04:17:00,
2013-05-01 23:22:00,44.9,36.4,30.31,North,11,2.4,6.0,72,0.00,OVC,,0.00,0.0,WeatherDisplay:10.37,2013-05-02 04:22:00,
2013-05-01 23:27:00,44.8,36.3,30.31,NNW,344,7.3,10.8,72,0.00,OVC,,0.00,0.0,WeatherDisplay:10.37,2013-05-02 04:27:00,
2013-05-01 23:32:00,44.5,36.4,30.31,North,360,8.5,12.0,73,0.00,OVC,,0.00,0.0,WeatherDisplay:10.37,2013-05-02 04:32:00,
2013-05-01 23:37:00,44.2,36.1,30.31,NNW,334,9.6,13.2,73,0.00,OVC,,0.00,0.0,WeatherDisplay:10.37,2013-05-02 04:37:00,
2013-05-01 23:42:00,44.1,36.3,30.31,North,360,5.9,8.4,74,0.00,OVC,,0.00,0.0,WeatherDisplay:10.37,2013-05-02 04:42:00,
2013-05-01 23:47:00,43.9,36.1,30.31,North,355,7.7,10.8,74,0.00,OVC,,0.00,0.0,WeatherDisplay:10.37,2013-05-02 04:47:00,
2013-05-01 23:52:00,43.9,36.1,30.31,North,360,6.9,8.4,74,0.00,OVC,,0.00,0.0,WeatherDisplay:10.37,2013-05-02 04:52:00,
2013-05-01 23:57:00,43.8,36.0,30.31,North,360,5.3,9.2,74,0.00,OVC,,0.00,0.0,WeatherDisplay:10.37,2013-05-02 04:57:00,